| time (UTC) | temp C | wind direction | speed KPH | gust KPH | rain 1hr cm | rain 24hr cm | rain mn cm | humidity % | barometer mb |
| 20260506012448 | 16 | 158 | 0.0 | 3.2 | 0.00 | 0.00 | 0.00 | 10 | 1014.6 |
| 20260506011938 | 16 | 158 | 0.0 | 3.2 | 0.00 | 0.00 | 0.00 | 10 | 1014.9 |
| 20260506010918 | 16 | 293 | 0.0 | 0.0 | 0.00 | 0.00 | 0.00 | 10 | 1014.9 |
| 20260506010408 | 16 | 293 | 0.0 | 0.0 | 0.00 | 0.00 | 0.00 | 10 | 1015.0 |
| 20260506005858 | 16 | 293 | 0.0 | 0.0 | 0.00 | 0.00 | 0.00 | 10 | 1014.7 |
| 20260506005348 | 16 | 315 | 0.0 | 3.2 | 0.00 | 0.00 | 0.00 | 10 | 1014.6 |
| 20260506003308 | 16 | 293 | 0.0 | 0.0 | 0.00 | 0.00 | 0.00 | 10 | 1014.7 |
| 20260506002757 | 16 | 293 | 0.0 | 0.0 | 0.00 | 0.00 | 0.00 | 10 | 1014.5 |
| 20260506002248 | 16 | 315 | 0.0 | 0.0 | 0.00 | 0.00 | 0.00 | 10 | 1014.7 |
| 20260506001737 | 16 | 315 | 0.0 | 3.2 | 0.00 | 0.00 | 0.00 | 10 | 1014.7 |
| 20260506001227 | 16 | 315 | 0.0 | 3.2 | 0.00 | 0.00 | 0.00 | 10 | 1014.6 |
| 20260506000717 | 16 | 23 | 1.6 | 3.2 | 0.00 | 0.00 | 0.00 | 10 | 1014.3 |
| 20260506000207 | 17 | 293 | 0.0 | 3.2 | 0.00 | 0.00 | 0.00 | 10 | 1014.5 |
| 20260505235656 | 17 | 293 | 0.0 | 3.2 | 0.00 | 0.00 | 0.00 | 10 | 1014.5 |
| 20260505235147 | 16 | 293 | 0.0 | 3.2 | 0.00 | 0.00 | 0.00 | 10 | 1014.3 |
| 20260505233616 | 17 | 90 | 0.0 | 6.4 | 0.00 | 0.00 | 0.00 | 10 | 1014.4 |
| 20260505233106 | 17 | 23 | 0.0 | 6.4 | 0.00 | 0.00 | 0.00 | 10 | 1014.4 |
| 20260505232555 | 17 | 68 | 3.2 | 6.4 | 0.00 | 0.00 | 0.00 | 10 | 1014.3 |
| 20260505232046 | 17 | 68 | 3.2 | 12.9 | 0.00 | 0.00 | 0.00 | 10 | 1014.0 |
| 20260505231026 | 17 | 68 | 4.8 | 6.4 | 0.00 | 0.00 | 0.00 | 10 | 1014.0 |
| 20260505230006 | 17 | 90 | 3.2 | 9.7 | 0.00 | 0.00 | 0.00 | 10 | 1013.9 |
| 20260505225456 | 18 | 90 | 3.2 | 9.7 | 0.00 | 0.00 | 0.00 | 10 | 1013.9 |
| 20260505224945 | 17 | 90 | 1.6 | 6.4 | 0.00 | 0.00 | 0.00 | 10 | 1013.9 |
| 20260505224435 | 17 | 90 | 3.2 | 6.4 | 0.00 | 0.00 | 0.00 | 10 | 1013.9 |
| 20260505223925 | 18 | 68 | 3.2 | 6.4 | 0.00 | 0.00 | 0.00 | 10 | 1013.9 |
| 20260505223415 | 18 | 90 | 3.2 | 6.4 | 0.00 | 0.00 | 0.00 | 10 | 1013.7 |
| 20260505222905 | 18 | 90 | 3.2 | 6.4 | 0.00 | 0.00 | 0.00 | 10 | 1013.6 |
| 20260505222355 | 18 | 90 | 3.2 | 9.7 | 0.00 | 0.00 | 0.00 | 10 | 1013.7 |
| 20260505221844 | 18 | 68 | 3.2 | 9.7 | 0.00 | 0.00 | 0.00 | 10 | 1013.5 |
| 20260505221335 | 18 | 90 | 3.2 | 6.4 | 0.00 | 0.00 | 0.00 | 10 | 1013.7 |
| 20260505220824 | 18 | 90 | 3.2 | 9.7 | 0.00 | 0.00 | 0.00 | 10 | 1013.5 |
| 20260505220314 | 18 | 113 | 3.2 | 11.3 | 0.00 | 0.00 | 0.00 | 10 | 1013.4 |
| 20260505215257 | 18 | 68 | 3.2 | 6.4 | 0.00 | 0.00 | 0.00 | 10 | 1013.3 |
| 20260505214743 | 19 | 113 | 1.6 | 9.7 | 0.00 | 0.00 | 0.00 | 10 | 1013.4 |
| 20260505214234 | 19 | 90 | 3.2 | 11.3 | 0.00 | 0.00 | 0.00 | 10 | 1013.5 |
| 20260505213723 | 19 | 90 | 3.2 | 11.3 | 0.00 | 0.00 | 0.00 | 10 | 1013.2 |
| 20260505212704 | 19 | 113 | 3.2 | 6.4 | 0.00 | 0.00 | 0.00 | 10 | 1013.7 |
| 20260505212154 | 20 | 113 | 3.2 | 9.7 | 0.00 | 0.00 | 0.00 | 10 | 1013.5 |
| 20260505211643 | 20 | 90 | 4.8 | 9.7 | 0.00 | 0.00 | 0.00 | 10 | 1013.5 |
| 20260505211133 | 20 | 90 | 3.2 | 6.4 | 0.00 | 0.00 | 0.00 | 10 | 1013.3 |
| 20260505210623 | 20 | 90 | 3.2 | 12.9 | 0.00 | 0.00 | 0.00 | 10 | 1013.4 |
| 20260505210112 | 20 | 90 | 3.2 | 12.9 | 0.00 | 0.00 | 0.00 | 10 | 1013.2 |
| 20260505205603 | 20 | 90 | 3.2 | 6.4 | 0.00 | 0.00 | 0.00 | 10 | 1013.3 |
| 20260505205054 | 20 | 113 | 3.2 | 9.7 | 0.00 | 0.00 | 0.00 | 10 | 1013.5 |
| 20260505204542 | 21 | 90 | 3.2 | 9.7 | 0.00 | 0.00 | 0.00 | 10 | 1013.4 |
| 20260505204033 | 21 | 90 | 3.2 | 12.9 | 0.00 | 0.00 | 0.00 | 10 | 1013.3 |
| 20260505203522 | 21 | 113 | 3.2 | 12.9 | 0.00 | 0.00 | 0.00 | 10 | 1013.1 |
| 20260505201951 | 21 | 113 | 3.2 | 9.7 | 0.00 | 0.00 | 0.00 | 10 | 1013.2 |
| 20260505201442 | 21 | 113 | 3.2 | 11.3 | 0.00 | 0.00 | 0.00 | 10 | 1013.1 |
| 20260505200932 | 21 | 113 | 4.8 | 11.3 | 0.00 | 0.00 | 0.00 | 10 | 1012.8 |
| 20260505200422 | 22 | 68 | 4.8 | 11.3 | 0.00 | 0.00 | 0.00 | 10 | 1013.0 |
| 20260505195911 | 22 | 90 | 3.2 | 9.7 | 0.00 | 0.00 | 0.00 | 10 | 1012.9 |
| 20260505195401 | 22 | 113 | 4.8 | 9.7 | 0.00 | 0.00 | 0.00 | 10 | 1013.1 |
| 20260505194851 | 22 | 90 | 3.2 | 6.4 | 0.00 | 0.00 | 0.00 | 10 | 1012.8 |
| 20260505194341 | 23 | 90 | 3.2 | 6.4 | 0.00 | 0.00 | 0.00 | 10 | 1012.9 |
| 20260505193831 | 23 | 90 | 4.8 | 6.4 | 0.00 | 0.00 | 0.00 | 10 | 1013.0 |
| 20260505193322 | 23 | 90 | 3.2 | 6.4 | 0.00 | 0.00 | 0.00 | 10 | 1013.0 |
| 20260505192810 | 23 | 113 | 3.2 | 6.4 | 0.00 | 0.00 | 0.00 | 10 | 1013.2 |
| 20260505192300 | 23 | 113 | 3.2 | 6.4 | 0.00 | 0.00 | 0.00 | 10 | 1013.1 |
| 20260505191750 | 23 | 68 | 3.2 | 9.7 | 0.00 | 0.00 | 0.00 | 10 | 1013.1 |
| 20260505191240 | 23 | 90 | 3.2 | 9.7 | 0.00 | 0.00 | 0.00 | 10 | 1013.1 |
| 20260505190730 | 23 | 90 | 4.8 | 6.4 | 0.00 | 0.00 | 0.00 | 10 | 1013.1 |
| 20260505190220 | 23 | 90 | 3.2 | 6.4 | 0.00 | 0.00 | 0.00 | 10 | 1013.1 |
| 20260505185710 | 23 | 113 | 3.2 | 6.4 | 0.00 | 0.00 | 0.00 | 10 | 1013.1 |
| 20260505185200 | 23 | 90 | 3.2 | 6.4 | 0.00 | 0.00 | 0.00 | 10 | 1013.1 |
| 20260505184650 | 23 | 90 | 3.2 | 6.4 | 0.00 | 0.00 | 0.00 | 10 | 1013.0 |
| 20260505184139 | 23 | 68 | 1.6 | 6.4 | 0.00 | 0.00 | 0.00 | 10 | 1013.2 |
| 20260505183629 | 23 | 90 | 3.2 | 6.4 | 0.00 | 0.00 | 0.00 | 10 | 1013.0 |
| 20260505183120 | 23 | 90 | 0.0 | 0.0 | 0.00 | 0.00 | 0.00 | 10 | 1013.2 |
| 20260505182609 | 23 | 90 | 0.0 | 0.0 | 0.00 | 0.00 | 0.00 | 10 | 1013.3 |
| 20260505182059 | 23 | 113 | 0.0 | 6.4 | 0.00 | 0.00 | 0.00 | 10 | 1013.3 |
| 20260505181549 | 23 | 90 | 0.0 | 6.4 | 0.00 | 0.00 | 0.00 | 10 | 1013.3 |
| 20260505181041 | 22 | 68 | 3.2 | 6.4 | 0.00 | 0.00 | 0.00 | 10 | 1013.1 |
| 20260505180529 | 23 | 68 | 3.2 | 6.4 | 0.00 | 0.00 | 0.00 | 10 | 1013.5 |
| 20260505180019 | 23 | 135 | 1.6 | 6.4 | 0.00 | 0.00 | 0.00 | 10 | 1013.4 |
| 20260505175509 | 22 | 113 | 1.6 | 3.2 | 0.00 | 0.00 | 0.00 | 10 | 1013.4 |
| 20260505174958 | 23 | 135 | 1.6 | 6.4 | 0.00 | 0.00 | 0.00 | 10 | 1013.6 |
| 20260505174449 | 22 | 113 | 3.2 | 6.4 | 0.00 | 0.00 | 0.00 | 10 | 1013.6 |
| 20260505173938 | 22 | 113 | 1.6 | 6.4 | 0.00 | 0.00 | 0.00 | 10 | 1013.7 |
| 20260505173427 | 22 | 135 | 3.2 | 6.4 | 0.00 | 0.00 | 0.00 | 10 | 1014.0 |
| 20260505172918 | 22 | 113 | 3.2 | 6.4 | 0.00 | 0.00 | 0.00 | 10 | 1013.9 |
| 20260505172407 | 22 | 113 | 3.2 | 6.4 | 0.00 | 0.00 | 0.00 | 10 | 1013.9 |
| 20260505171858 | 22 | 180 | 0.0 | 6.4 | 0.00 | 0.00 | 0.00 | 10 | 1013.9 |
| 20260505171348 | 22 | 180 | 3.2 | 6.4 | 0.00 | 0.00 | 0.00 | 10 | 1014.0 |
| 20260505170837 | 22 | 135 | 1.6 | 6.4 | 0.00 | 0.00 | 0.00 | 10 | 1014.0 |
| 20260505170328 | 22 | 180 | 3.2 | 6.4 | 0.00 | 0.00 | 0.00 | 10 | 1014.1 |
| 20260505165307 | 21 | 113 | 3.2 | 6.4 | 0.00 | 0.00 | 0.00 | 10 | 1014.1 |
| 20260505164757 | 21 | 113 | 1.6 | 6.4 | 0.00 | 0.00 | 0.00 | 10 | 1014.3 |
| 20260505164247 | 22 | 113 | 1.6 | 6.4 | 0.00 | 0.00 | 0.00 | 10 | 1014.2 |
| 20260505163737 | 21 | 113 | 3.2 | 6.4 | 0.00 | 0.00 | 0.00 | 10 | 1014.0 |
| 20260505163227 | 21 | 113 | 3.2 | 6.4 | 0.00 | 0.00 | 0.00 | 10 | 1014.4 |
| 20260505162716 | 21 | 158 | 1.6 | 6.4 | 0.00 | 0.00 | 0.00 | 10 | 1014.3 |
| 20260505162206 | 21 | 158 | 3.2 | 6.4 | 0.00 | 0.00 | 0.00 | 10 | 1014.4 |
| 20260505161656 | 20 | 113 | 3.2 | 6.4 | 0.00 | 0.00 | 0.00 | 10 | 1014.2 |
| 20260505161146 | 20 | 135 | 3.2 | 6.4 | 0.00 | 0.00 | 0.00 | 10 | 1014.4 |
| 20260505160127 | 19 | 135 | 3.2 | 6.4 | 0.00 | 0.00 | 0.00 | 10 | 1014.4 |
| 20260505153025 | 19 | 158 | 3.2 | 6.4 | 0.00 | 0.00 | 0.00 | 10 | 1014.7 |
| 20260505152516 | 19 | 158 | 1.6 | 6.4 | 0.00 | 0.00 | 0.00 | 10 | 1014.5 |
| 20260505152005 | 18 | 113 | 3.2 | 6.4 | 0.00 | 0.00 | 0.00 | 10 | 1014.4 |
| 20260505151455 | 18 | 135 | 3.2 | 6.4 | 0.00 | 0.00 | 0.00 | 10 | 1014.7 |
| 20260505150944 | 18 | 113 | 3.2 | 6.4 | 0.00 | 0.00 | 0.00 | 10 | 1014.9 |
| 20260505150435 | 18 | 113 | 3.2 | 6.4 | 0.00 | 0.00 | 0.00 | 10 | 1014.9 |
| 20260505140233 | 18 | 90 | 3.2 | 3.2 | 0.00 | 0.00 | 0.00 | 10 | 1015.1 |
| 20260505125012 | 15 | 338 | 0.0 | 6.4 | 0.00 | 0.00 | 0.00 | 10 | 1015.3 |
| 20260505124502 | 13 | 338 | 3.2 | 9.7 | 0.00 | 0.00 | 0.00 | 10 | 1015.5 |
| 20260505123952 | 13 | 293 | 4.8 | 9.7 | 0.00 | 0.00 | 0.00 | 10 | 1015.3 |
| 20260505123441 | 13 | 293 | 4.8 | 6.4 | 0.00 | 0.00 | 0.00 | 10 | 1015.2 |
| 20260505122932 | 13 | 270 | 1.6 | 6.4 | 0.00 | 0.00 | 0.00 | 10 | 1015.1 |
| 20260505122421 | 12 | 293 | 3.2 | 6.4 | 0.00 | 0.00 | 0.00 | 10 | 1015.0 |
| 20260505121401 | 12 | 270 | 0.0 | 0.0 | 0.00 | 0.00 | 0.00 | 10 | 1014.9 |
| 20260505120851 | 12 | 203 | 0.0 | 0.0 | 0.00 | 0.00 | 0.00 | 10 | 1015.1 |
| 20260505120341 | 11 | 270 | 0.0 | 0.0 | 0.00 | 0.00 | 0.00 | 10 | 1015.1 |
| 20260505115830 | 11 | 270 | 0.0 | 3.2 | 0.00 | 0.00 | 0.00 | 10 | 1015.3 |
| 20260505115321 | 10 | 315 | 0.0 | 3.2 | 0.00 | 0.00 | 0.00 | 10 | 1015.0 |
| 20260505114300 | 10 | 315 | 0.0 | 6.4 | 0.00 | 0.00 | 0.00 | 10 | 1014.8 |
| 20260505113750 | 9 | 270 | 1.6 | 6.4 | 0.00 | 0.00 | 0.00 | 10 | 1014.9 |
| 20260505113240 | 9 | 315 | 1.6 | 6.4 | 0.00 | 0.00 | 0.00 | 10 | 1014.9 |
| 20260505112730 | 8 | 315 | 1.6 | 6.4 | 0.00 | 0.00 | 0.00 | 10 | 1014.8 |
| 20260505112219 | 8 | 315 | 0.0 | 3.2 | 0.00 | 0.00 | 0.00 | 10 | 1014.8 |
| 20260505111710 | 8 | 248 | 0.0 | 0.0 | 0.00 | 0.00 | 0.00 | 10 | 1014.7 |
| 20260505110649 | 8 | 248 | 0.0 | 6.4 | 0.00 | 0.00 | 0.00 | 10 | 1014.7 |
| 20260505102018 | 9 | 248 | 4.8 | 6.4 | 0.00 | 0.00 | 0.00 | 10 | 1014.4 |
| 20260505101513 | 10 | 315 | 3.2 | 6.4 | 0.00 | 0.00 | 0.00 | 10 | 1014.2 |
| 20260505100958 | 10 | 293 | 0.0 | 6.4 | 0.00 | 0.00 | 0.00 | 10 | 1014.1 |
| 20260505100448 | 10 | 293 | 0.0 | 6.4 | 0.00 | 0.00 | 0.00 | 10 | 1013.9 |
| 20260505095938 | 10 | 293 | 3.2 | 6.4 | 0.00 | 0.00 | 0.00 | 10 | 1014.2 |
| 20260505095428 | 10 | 315 | 3.2 | 6.4 | 0.00 | 0.00 | 0.00 | 10 | 1013.7 |
| 20260505094918 | 10 | 315 | 1.6 | 6.4 | 0.00 | 0.00 | 0.00 | 10 | 1014.0 |
| 20260505094408 | 10 | 293 | 1.6 | 6.4 | 0.00 | 0.00 | 0.00 | 10 | 1013.6 |
| 20260505093858 | 10 | 23 | 0.0 | 3.2 | 0.00 | 0.00 | 0.00 | 10 | 1013.2 |
| 20260505093347 | 10 | 338 | 0.0 | 3.2 | 0.00 | 0.00 | 0.00 | 10 | 1013.0 |
| 20260505092837 | 10 | 315 | 0.0 | 3.2 | 0.00 | 0.00 | 0.00 | 10 | 1013.4 |
| 20260505092327 | 10 | 293 | 3.2 | 3.2 | 0.00 | 0.00 | 0.00 | 10 | 1013.1 |
| 20260505091817 | 10 | 315 | 0.0 | 6.4 | 0.00 | 0.00 | 0.00 | 10 | 1013.2 |
| 20260505090757 | 10 | 293 | 1.6 | 6.4 | 0.00 | 0.00 | 0.00 | 10 | 1013.0 |
| 20260505090247 | 10 | 270 | 3.2 | 6.4 | 0.00 | 0.00 | 0.00 | 10 | 1013.2 |
| 20260505085226 | 10 | 0 | 0.0 | 3.2 | 0.00 | 0.00 | 0.00 | 10 | 1012.7 |
| 20260505084717 | 10 | 338 | 0.0 | 6.4 | 0.00 | 0.00 | 0.00 | 10 | 1012.9 |
| 20260505084207 | 10 | 270 | 0.0 | 6.4 | 0.00 | 0.00 | 0.00 | 10 | 1012.8 |
| 20260505083655 | 10 | 293 | 1.6 | 3.2 | 0.00 | 0.00 | 0.00 | 10 | 1012.9 |
| 20260505083146 | 10 | 248 | 0.0 | 3.2 | 0.00 | 0.00 | 0.00 | 10 | 1012.6 |
| 20260505082636 | 10 | 338 | 0.0 | 3.2 | 0.00 | 0.00 | 0.00 | 10 | 1012.6 |
| 20260505082125 | 10 | 338 | 0.0 | 0.0 | 0.00 | 0.00 | 0.00 | 10 | 1012.6 |
| 20260505081616 | 10 | 293 | 0.0 | 0.0 | 0.00 | 0.00 | 0.00 | 10 | 1012.6 |
| 20260505081106 | 10 | 270 | 0.0 | 0.0 | 0.00 | 0.00 | 0.00 | 10 | 1012.6 |
| 20260505080555 | 10 | 270 | 0.0 | 0.0 | 0.00 | 0.00 | 0.00 | 10 | 1012.4 |
| 20260505080045 | 10 | 270 | 0.0 | 3.2 | 0.00 | 0.00 | 0.00 | 10 | 1012.5 |
| 20260505075535 | 10 | 293 | 0.0 | 3.2 | 0.00 | 0.00 | 0.00 | 10 | 1012.5 |
| 20260505075025 | 10 | 315 | 1.6 | 3.2 | 0.00 | 0.00 | 0.00 | 10 | 1012.3 |
| 20260505074515 | 10 | 315 | 1.6 | 3.2 | 0.00 | 0.00 | 0.00 | 10 | 1012.5 |
| 20260505074005 | 10 | 338 | 0.0 | 3.2 | 0.00 | 0.00 | 0.00 | 10 | 1012.6 |
| 20260505073455 | 10 | 338 | 1.6 | 6.4 | 0.00 | 0.00 | 0.00 | 10 | 1012.6 |
| 20260505072944 | 10 | 315 | 3.2 | 6.4 | 0.00 | 0.00 | 0.00 | 10 | 1012.9 |
| 20260505072434 | 10 | 315 | 3.2 | 3.2 | 0.00 | 0.00 | 0.00 | 10 | 1013.0 |
| 20260505071924 | 9 | 315 | 3.2 | 3.2 | 0.00 | 0.00 | 0.00 | 10 | 1012.8 |
| 20260505071414 | 10 | 315 | 1.6 | 3.2 | 0.00 | 0.00 | 0.00 | 10 | 1012.7 |
| 20260505070904 | 10 | 270 | 0.0 | 3.2 | 0.00 | 0.00 | 0.00 | 10 | 1013.1 |
| 20260505070352 | 10 | 270 | 0.0 | 0.0 | 0.00 | 0.00 | 0.00 | 10 | 1012.9 |
| 20260505070152 | 10 | 315 | 0.0 | 0.0 | 0.00 | 0.00 | 0.00 | 10 | 1013.0 |
| 20260505065534 | 10 | 315 | 0.0 | 3.2 | 0.00 | 0.00 | 0.00 | 10 | 1012.9 |
| 20260505065024 | 10 | 315 | 0.0 | 3.2 | 0.00 | 0.00 | 0.00 | 10 | 1012.8 |
| 20260505064004 | 10 | 338 | 0.0 | 6.4 | 0.00 | 0.00 | 0.00 | 10 | 1013.1 |
| 20260505063454 | 10 | 338 | 0.0 | 3.2 | 0.00 | 0.00 | 0.00 | 10 | 1012.9 |
| 20260505062943 | 10 | 293 | 0.0 | 0.0 | 0.00 | 0.00 | 0.00 | 10 | 1013.0 |
| 20260505062434 | 10 | 248 | 0.0 | 0.0 | 0.00 | 0.00 | 0.00 | 10 | 1013.1 |
| 20260505061924 | 11 | 270 | 0.0 | 0.0 | 0.00 | 0.00 | 0.00 | 10 | 1012.7 |
| 20260505061413 | 11 | 270 | 0.0 | 0.0 | 0.00 | 0.00 | 0.00 | 10 | 1012.9 |
| 20260505060903 | 10 | 23 | 0.0 | 0.0 | 0.00 | 0.00 | 0.00 | 10 | 1013.1 |
| 20260505060353 | 10 | 293 | 0.0 | 0.0 | 0.00 | 0.00 | 0.00 | 10 | 1012.9 |
| 20260505055333 | 11 | 225 | 0.0 | 0.0 | 0.00 | 0.00 | 0.00 | 10 | 1012.6 |
| 20260505054823 | 11 | 270 | 0.0 | 6.4 | 0.00 | 0.00 | 0.00 | 10 | 1012.8 |
| 20260505054312 | 11 | 338 | 0.0 | 6.4 | 0.00 | 0.00 | 0.00 | 10 | 1012.8 |
| 20260505053803 | 11 | 225 | 1.6 | 3.2 | 0.00 | 0.00 | 0.00 | 10 | 1012.8 |
| 20260505053252 | 11 | 225 | 0.0 | 0.0 | 0.00 | 0.00 | 0.00 | 10 | 1012.9 |
| 20260505052743 | 11 | 270 | 0.0 | 3.2 | 0.00 | 0.00 | 0.00 | 10 | 1012.8 |
| 20260505052232 | 11 | 338 | 0.0 | 3.2 | 0.00 | 0.00 | 0.00 | 10 | 1013.0 |
| 20260505051729 | 10 | 293 | 0.0 | 0.0 | 0.00 | 0.00 | 0.00 | 10 | 1013.1 |
| 20260505051212 | 11 | 315 | 0.0 | 3.2 | 0.00 | 0.00 | 0.00 | 10 | 1013.1 |
| 20260505050702 | 11 | 315 | 0.0 | 3.2 | 0.00 | 0.00 | 0.00 | 10 | 1013.1 |
| 20260505050152 | 11 | 293 | 3.2 | 3.2 | 0.00 | 0.00 | 0.00 | 10 | 1013.1 |
| 20260505041531 | 12 | 315 | 1.6 | 6.4 | 0.00 | 0.00 | 0.00 | 10 | 1013.1 |
| 20260505041011 | 12 | 315 | 3.2 | 6.4 | 0.00 | 0.00 | 0.00 | 10 | 1013.3 |
| 20260505035951 | 12 | 293 | 3.2 | 6.4 | 0.00 | 0.00 | 0.00 | 10 | 1013.0 |
| 20260505035440 | 12 | 293 | 4.8 | 6.4 | 0.00 | 0.00 | 0.00 | 10 | 1013.0 |
| 20260505034931 | 12 | 293 | 3.2 | 3.2 | 0.00 | 0.00 | 0.00 | 10 | 1013.0 |
| 20260505033910 | 12 | 23 | 0.0 | 3.2 | 0.00 | 0.00 | 0.00 | 10 | 1012.8 |
| 20260505033400 | 12 | 338 | 0.0 | 3.2 | 0.00 | 0.00 | 0.00 | 10 | 1012.9 |
| 20260505032850 | 12 | 293 | 0.0 | 6.4 | 0.00 | 0.00 | 0.00 | 10 | 1013.0 |
| 20260505032339 | 13 | 293 | 0.0 | 6.4 | 0.00 | 0.00 | 0.00 | 10 | 1013.0 |
| 20260505031829 | 12 | 315 | 3.2 | 6.4 | 0.00 | 0.00 | 0.00 | 10 | 1013.0 |
| 20260505031319 | 13 | 315 | 3.2 | 3.2 | 0.00 | 0.00 | 0.00 | 10 | 1013.1 |
| 20260505030809 | 13 | 315 | 1.6 | 3.2 | 0.00 | 0.00 | 0.00 | 10 | 1013.0 |
| 20260505030259 | 13 | 315 | 0.0 | 3.2 | 0.00 | 0.00 | 0.00 | 10 | 1012.9 |
| 20260505025749 | 13 | 315 | 0.0 | 3.2 | 0.00 | 0.00 | 0.00 | 10 | 1013.0 |
| 20260505025240 | 13 | 293 | 3.2 | 3.2 | 0.00 | 0.00 | 0.00 | 10 | 1012.7 |
| 20260505024728 | 13 | 0 | 0.0 | 3.2 | 0.00 | 0.00 | 0.00 | 10 | 1012.8 |
| 20260505024219 | 13 | 0 | 0.0 | 3.2 | 0.00 | 0.00 | 0.00 | 10 | 1012.7 |
| 20260505023708 | 15 | 270 | 0.0 | 3.2 | 0.00 | 0.00 | 0.00 | 10 | 1012.5 |
| 20260505023159 | 15 | 248 | 0.0 | 3.2 | 0.00 | 0.00 | 0.00 | 10 | 1012.5 |
| 20260505022650 | 15 | 270 | 3.2 | 3.2 | 0.00 | 0.00 | 0.00 | 10 | 1012.6 |
| 20260505021628 | 15 | 270 | 0.0 | 3.2 | 0.00 | 0.00 | 0.00 | 10 | 1012.4 |
| 20260505021118 | 16 | 90 | 0.0 | 3.2 | 0.00 | 0.00 | 0.00 | 10 | 1012.4 |
| 20260505020058 | 16 | 135 | 0.0 | 3.2 | 0.00 | 0.00 | 0.00 | 10 | 1012.1 |
| 20260505015548 | 16 | 90 | 0.0 | 3.2 | 0.00 | 0.00 | 0.00 | 10 | 1012.0 |
| 20260505015037 | 16 | 158 | 0.0 | 3.2 | 0.00 | 0.00 | 0.00 | 10 | 1012.0 |
| 20260505014528 | 16 | 90 | 0.0 | 3.2 | 0.00 | 0.00 | 0.00 | 10 | 1012.0 |
| 20260505014018 | 16 | 270 | 0.0 | 6.4 | 0.00 | 0.00 | 0.00 | 10 | 1011.9 |
| 20260505013512 | 16 | 23 | 3.2 | 6.4 | 0.00 | 0.00 | 0.00 | 10 | 1011.7 |
| 20260505012957 | 16 | 68 | 0.0 | 12.9 | 0.00 | 0.00 | 0.00 | 10 | 1011.7 |